Regional Weather Roundup
Issued by NWS Glasgow, MT

Home | Current Version | Previous Version | Text Only | Print | Product List | Glossary On
Versions: 1 2 3 4 5 6 7 8 9 10 11 12 13 14 15 16 17 18 19 20 21 22 23 24 25 26 27 28 29 30 31 32 33 34 35 36 37 38 39 40 41 42 43 44 45 46 47 48 49 50
000
ASUS45 KGGW 211115
RWRGGW
HOURLY REGIONAL WEATHER ROUNDUP FOR NORTHEAST MONTANA
NATIONAL WEATHER SERVICE GLASGOW MONTANA
400 AM MST TUE NOV 21 2017

NOTE: "FAIR" INDICATES FEW OR NO CLOUDS BELOW 12,000 FEET WITH NO
SIGNIFICANT WEATHER AND/OR OBSTRUCTIONS TO VISISBILITY.

NORTHEAST MONTANA


CITY           SKY/WX    TMP DP  RH WIND       PRES   REMARKS
GLASGOW        CLOUDY     4  -3  73 NW12      30.32R WCI -12
PLENTYWOOD       N/A      1  -3  83 NW14G25     N/A  WCI -17
WOLF POINT     CLOUDY     4  -4  69 W7        30.35R
JORDAN           N/A     15   5  64 N7        30.29R
WINNETT          N/A     23  20  88 E7G15       N/A
SIDNEY         CLOUDY     5  -2  72 NW14      30.31R WCI -12
GLENDIVE       CLOUDY     6  -2  69 NW15      30.29  WCI -12
MALTA            N/A     10   3  73 NE3G13      N/A
SCOBEY           N/A     -1 -13  56 NW10      30.23R WCI -17

FORT PECK REPORTS


CITY           SKY/WX    TMP DP  RH WIND       PRES   REMARKS
FORT PECK        N/A      6   0  76 W14         N/A  WCI -11
THE PINES        N/A      9   0  67 N9G20       N/A

SOUTHEAST MONTANA


CITY           SKY/WX    TMP DP  RH WIND       PRES   REMARKS
BILLINGS       CLOUDY    27  25  92 N3        30.24R
MILES CITY     CLOUDY    19   9  65 N9        30.28R
BAKER          CLOUDY    12   3  67 NW18      30.22R WCI  -6
LIVINGSTON     CLOUDY    29  29 100 E9        30.16R

CENTRAL MONTANA


CITY           SKY/WX    TMP DP  RH WIND       PRES   REMARKS
HAVRE          CLOUDY    16   7  67 NW6       30.28F
LEWISTOWN      CLOUDY    21  21 100 W6        30.18F
GREAT FALLS    CLOUDY    19  16  88 E5        30.21R
CUT BANK       CLOUDY    15  10  80 S3        30.17F
HELENA         CLOUDY    31  28  89 CALM      30.18R
BUTTE          CLOUDY    27  23  85 SE3       30.16R
BOZEMAN        FOG       28  27  96 E6        30.17R VSB 1

WESTERN MONTANA


CITY           SKY/WX    TMP DP  RH WIND       PRES   REMARKS
MISSOULA       FOG       33  33 100 S3        30.19R VSB 1
KALISPELL      NOT AVBL

NORTH DAKOTA


CITY           SKY/WX    TMP DP  RH WIND       PRES   REMARKS
WILLISTON      CLOUDY     3  -2  79 W13       30.27R WCI -14
DICKINSON      CLOUDY     5   0  79 NW15      30.16R WCI -13
MINOT          CLEAR      7   1  76 NW22G28   30.15R WCI -14
BISMARCK       CLOUDY    17   6  62 NW22      30.16R WCI   0

SOUTHERN SASKATCHEWAN


CITY           SKY/WX    TMP DP  RH WIND       PRES   REMARKS
REGINA         FLURRIES   3  -2  78 W16       30.26R WCI -16
MOOSE JAW      FLURRIES   1  -6  71 NW14      30.30R WCI -17
ESTEVAN        FLURRIES   3  -2  78 NW18      30.21R WCI -17
SWIFT CURRENT  CLEAR     -6 -11  77 W14       30.23S WCI -26




USA.gov is the U.S. government's official web portal to all federal, state and local government web resources and services.